User: anonymous   Login
Location: Unspecified
(0.0000°N, 0.0000°E)
Time: 05:38:43
(UTC+00:00)
Language:

DSCS III A-2 - Orbit

View from above orbital plane
View from above orbital plane
View from above satellite
View from above satellite

Ground track
Ground track

The orbit data is extracted from the following two-line orbital elements,

1 20203U 89069B   20055.63552076 -.00000096  00000-0  00000+0 0  9990
2 20203  13.7522  21.4043 0016177 330.3617 223.1476  0.99122417  2134
Epoch (UTC): 24 February 2020 15:15:08
Eccentricity: 0.0016177
inclination: 13.7522°
perigee height: 36043 km
apogee height: 36180 km
right ascension of ascending node: 21.4043°
argument of perigee: 330.3617°
revolutions per day: 0.99122417
mean anomaly at epoch: 223.1476°
orbit number at epoch: 213

The dashed part of the orbit path shows where the satellite is in the earth's shadow,  

DLR